User: anonymous   Login
Location: Unspecified
(0.0000°N, 0.0000°E)
Time: 08:10:11
(UTC+00:00)
Language:

APRIZESAT 5 - Orbit

View from above orbital plane
View from above orbital plane
View from above satellite
View from above satellite

Ground track
Ground track

The orbit data is extracted from the following two-line orbital elements,

1 37792U 11044E   19345.54251841  .00000050  00000-0  15639-4 0  9993
2 37792  98.4156 171.8125 0059132  47.7285 312.8915 14.75355647447642
Epoch (UTC): 11 December 2019 13:01:13
Eccentricity: 0.0059132
inclination: 98.4156°
perigee height: 602 km
apogee height: 685 km
right ascension of ascending node: 171.8125°
argument of perigee: 47.7285°
revolutions per day: 14.75355647
mean anomaly at epoch: 312.8915°
orbit number at epoch: 44764

The dashed part of the orbit path shows where the satellite is in the earth's shadow,  

DLR